Change the Weather History Date:

Monday, October 15, 2012

  Actual Average (KOFK) Record (KOFK)
Temperature  
Mean Temperature 58 °F 52 °F  
Max Temperature 80 °F 64 °F 90 °F (1958)
Min Temperature 36 °F 39 °F 21 °F (1943)
Degree Days  
Heating Degree Days 8 14  
Month to date heating degree days 170  
Since 1 July heating degree days 312  
Cooling Degree Days 0 0  
Month to date cooling degree days 8  
Year to date cooling degree days 914  
Growing Degree Days 8 (Base 50)    
Moisture  
Dew Point 37 °F    
Average Humidity 50    
Maximum Humidity 86    
Minimum Humidity 19    
Precipitation  
Precipitation 0.00 in 0.07 in 2.60 in (2007)
Month to date precipitation 1.15  
Year to date precipitation 24.37  
Snow  
Snow 0.00 in 0.10 in - ()
Month to date snowfall 0.2  
Since 1 July snowfall 0.2  
Snow Depth -    
Sea Level Pressure  
Sea Level Pressure 29.87 in    
Wind  
Wind Speed 4 mph (SSE)    
Max Wind Speed 14 mph    
Max Gust Speed 18 mph    
Visibility 10 miles    
Events      
T = Trace of Precipitation, MM = Missing Value Source: NWS Daily Summary

Daily Weather History Graph

Daily Weather History Graph

Search for Another Location

Airport or City:

Trip Planner

Search our weather history database for the weather conditions in past years. The results will help you decide how hot, cold, wet, or windy it might be!

Date:

Astronomy

Oct. 15, 2012 Rise Set
Actual Time 7:45 AM CDT 6:50 PM CDT
Civil Twilight 7:16 AM CDT 7:18 PM CDT
Nautical Twilight 6:44 AM CDT 7:50 PM CDT
Astronomical Twilight 6:12 AM CDT 8:22 PM CDT
Moon 7:57 AM CDT (10/15) 6:49 PM CDT (10/15)
Length of Visible Light 12h 01m
Length of Day
11h 05m
New Moon, 0% of the Moon is Illuminated
Oct 15
New Moon
Oct 21
First Quarter
Oct 29
Full
Nov 6
Last Quarter
Nov 13
New

Hourly Weather History & Observations

Time (CDT) Temp. Windchill Dew Point Humidity Pressure Visibility Wind Dir Wind Speed Gust Speed Precip Events Conditions
12:15 AM 51.8 °F - 37.6 °F 58% 30.00 in 10.0 mi Calm Calm - N/A   Clear
12:35 AM 50.4 °F - 38.3 °F 63% 29.99 in 10.0 mi Calm Calm - N/A   Scattered Clouds
12:55 AM 51.8 °F - 37.6 °F 58% 29.99 in 10.0 mi Calm Calm - N/A   Scattered Clouds
1:15 AM 51.3 °F - 37.8 °F 60% 29.99 in 10.0 mi Calm Calm - N/A   Clear
1:35 AM 52.0 °F - 37.6 °F 58% 29.99 in 10.0 mi WSW 3.5 mph - N/A   Clear
1:55 AM 47.3 °F - 37.4 °F 68% 29.99 in 10.0 mi NNW 3.5 mph - N/A   Scattered Clouds
2:15 AM 49.8 °F - 37.2 °F 62% 29.98 in 10.0 mi NNW 4.6 mph - N/A   Mostly Cloudy
2:35 AM 49.6 °F - 38.1 °F 65% 29.98 in 10.0 mi NW 3.5 mph - N/A   Overcast
2:55 AM 50.0 °F - 36.5 °F 60% 29.98 in 10.0 mi NW 5.8 mph - N/A   Mostly Cloudy
3:15 AM 48.7 °F - 36.1 °F 62% 29.97 in 10.0 mi NNW 6.9 mph - N/A   Clear
3:35 AM 47.1 °F - 35.6 °F 64% 29.96 in 10.0 mi NW 4.6 mph - N/A   Clear
3:55 AM 42.1 °F - 35.2 °F 77% 29.96 in 10.0 mi Calm Calm - N/A   Clear
4:15 AM 41.2 °F - 35.1 °F 79% 29.96 in 10.0 mi Calm Calm - N/A   Clear
4:55 AM 40.8 °F 38.8 °F 34.7 °F 79% 29.96 in 10.0 mi NW 3.5 mph - N/A   Clear
5:15 AM 39.9 °F 37.8 °F 34.7 °F 82% 29.96 in 10.0 mi NNW 3.5 mph - N/A   Clear
5:35 AM 37.8 °F - 33.1 °F 83% 29.96 in 10.0 mi Calm Calm - N/A   Clear
5:55 AM 39.4 °F 37.2 °F 34.0 °F 81% 29.95 in 10.0 mi North 3.5 mph - N/A   Clear
6:15 AM 38.5 °F - 33.3 °F 81% 29.96 in 10.0 mi Calm Calm - N/A   Clear
6:35 AM 37.0 °F - 33.1 °F 86% 29.96 in 10.0 mi Calm Calm - N/A   Clear
6:55 AM 37.2 °F 33.6 °F 32.7 °F 84% 29.96 in 10.0 mi SW 4.6 mph - N/A   Clear
7:15 AM 38.1 °F - 33.4 °F 83% 29.95 in 10.0 mi Calm Calm - N/A   Clear
7:35 AM 36.7 °F - 32.5 °F 85% 29.95 in 10.0 mi Calm Calm - N/A   Clear
7:55 AM 36.7 °F - 32.4 °F 84% 29.95 in 10.0 mi Calm Calm - N/A   Clear
8:15 AM 37.2 °F - 33.1 °F 85% 29.95 in 10.0 mi Calm Calm - N/A   Clear
8:35 AM 39.4 °F - 34.9 °F 84% 29.96 in 10.0 mi Calm Calm - N/A   Clear
8:55 AM 43.0 °F - 36.3 °F 77% 29.96 in 10.0 mi Calm Calm - N/A   Clear
9:15 AM 45.5 °F - 38.3 °F 76% 29.95 in 10.0 mi Calm Calm - N/A   Clear
9:35 AM 48.7 °F - 39.2 °F 70% 29.95 in 10.0 mi Calm Calm - N/A   Clear
9:55 AM 51.4 °F - 38.7 °F 62% 29.96 in 10.0 mi Calm Calm - N/A   Clear
10:15 AM 55.6 °F - 38.7 °F 53% 29.95 in 10.0 mi SSE 3.5 mph - N/A   Clear
10:55 AM 61.0 °F - 37.9 °F 42% 29.94 in 10.0 mi SSE 3.5 mph - N/A   Clear
11:15 AM 63.1 °F - 39.6 °F 42% 29.93 in 10.0 mi SE 4.6 mph - N/A   Clear
11:35 AM 65.3 °F - 39.4 °F 39% 29.92 in 10.0 mi SE 5.8 mph - N/A   Clear
11:55 AM 69.6 °F - 37.6 °F 31% 29.92 in 10.0 mi South 6.9 mph - N/A   Clear
12:15 PM 72.1 °F - 36.3 °F 27% 29.92 in 10.0 mi SSW 9.2 mph - N/A   Clear
12:35 PM 73.8 °F - 36.0 °F 25% 29.91 in 10.0 mi South 12.7 mph - N/A   Clear
12:55 PM 74.5 °F - 36.1 °F 25% 29.89 in 10.0 mi South 9.2 mph - N/A   Clear
1:15 PM 75.9 °F - 35.2 °F 23% 29.88 in 10.0 mi South 11.5 mph - N/A   Clear
1:35 PM 76.1 °F - 35.6 °F 23% 29.87 in 10.0 mi SSW 9.2 mph - N/A   Clear
1:55 PM 77.2 °F - 33.1 °F 20% 29.86 in 10.0 mi SSW 11.5 mph 18.4 mph N/A   Clear
2:15 PM 77.2 °F - 33.1 °F 20% 29.84 in 10.0 mi SW 8.1 mph - N/A   Clear
2:35 PM 77.0 °F - 34.3 °F 21% 29.83 in 10.0 mi South 13.8 mph 17.3 mph N/A   Clear
2:55 PM 77.2 °F - 34.9 °F 22% 29.82 in 10.0 mi South 9.2 mph - N/A   Clear
3:15 PM 78.1 °F - 34.7 °F 21% 29.82 in 10.0 mi SSE 10.4 mph 17.3 mph N/A   Clear
3:35 PM 79.0 °F - 34.5 °F 20% 29.81 in 10.0 mi South 11.5 mph - N/A   Clear
3:55 PM 78.8 °F - 33.3 °F 19% 29.80 in 10.0 mi South 10.4 mph 16.1 mph N/A   Clear
4:15 PM 78.8 °F - 33.3 °F 19% 29.79 in 10.0 mi South 11.5 mph - N/A   Clear
4:35 PM 79.5 °F - 33.1 °F 19% 29.78 in 10.0 mi South 11.5 mph 18.4 mph N/A   Clear
4:55 PM 79.9 °F - 33.4 °F 19% 29.78 in 10.0 mi South 13.8 mph 18.4 mph N/A   Clear
5:15 PM 79.5 °F - 34.5 °F 20% 29.77 in 10.0 mi South 11.5 mph - N/A   Clear
5:35 PM 78.4 °F - 34.9 °F 21% 29.77 in 10.0 mi South 10.4 mph - N/A   Clear
5:55 PM 76.6 °F - 35.6 °F 23% 29.76 in 10.0 mi South 8.1 mph - N/A   Clear
6:15 PM 74.3 °F - 36.9 °F 26% 29.75 in 10.0 mi SSE 6.9 mph - N/A   Clear
6:35 PM 72.9 °F - 37.4 °F 28% 29.74 in 10.0 mi SE 8.1 mph - N/A   Clear
6:55 PM 70.0 °F - 37.8 °F 31% 29.74 in 10.0 mi SE 8.1 mph - N/A   Clear
7:15 PM 69.8 °F - 38.3 °F 32% 29.73 in 10.0 mi SE 8.1 mph - N/A   Clear
7:35 PM 68.9 °F - 38.3 °F 33% 29.74 in 10.0 mi SE 8.1 mph - N/A   Clear
7:55 PM 67.6 °F - 38.5 °F 34% 29.74 in 10.0 mi SE 4.6 mph - N/A   Clear
8:15 PM 65.7 °F - 39.0 °F 38% 29.74 in 10.0 mi SE 6.9 mph - N/A   Clear
8:35 PM 63.9 °F - 39.4 °F 41% 29.73 in 10.0 mi SE 5.8 mph - N/A   Scattered Clouds
8:55 PM 62.1 °F - 39.6 °F 44% 29.73 in 10.0 mi SE 4.6 mph - N/A   Scattered Clouds
9:15 PM 59.7 °F - 40.1 °F 48% 29.73 in 10.0 mi SE 5.8 mph - N/A   Clear
9:35 PM 61.3 °F - 40.5 °F 46% 29.73 in 10.0 mi ESE 5.8 mph - N/A   Clear
9:55 PM 60.8 °F - 41.0 °F 48% 29.73 in 10.0 mi ESE 8.1 mph - N/A   Clear
10:15 PM 60.1 °F - 41.4 °F 50% 29.72 in 10.0 mi SE 8.1 mph - N/A   Clear
10:35 PM 59.0 °F - 41.9 °F 53% 29.72 in 10.0 mi SSE 3.5 mph - N/A   Clear
10:55 PM 59.0 °F - 41.9 °F 53% 29.72 in 10.0 mi SE 3.5 mph - N/A   Clear
11:15 PM 59.0 °F - 42.8 °F 55% 29.71 in 10.0 mi SE 4.6 mph - N/A   Clear
11:35 PM 59.2 °F - 43.2 °F 55% 29.71 in 10.0 mi SSE 4.6 mph - N/A   Clear
11:55 PM 59.9 °F - 43.7 °F 55% 29.70 in 10.0 mi SSE 5.8 mph - N/A   Clear